This is the latest recevied weather packets stored in our database for station/object KJ4YLO. If no packets are shown the sender has not sent any weather packets the latest 10 day(s).
| Time | Temp. | Humidity | Pressure | Rain* | Wind** | Luminosity | Snow |
|---|---|---|---|---|---|---|---|
| 1777563399 | 19.44° C | 78% | 1012.8 hPa | 0 mm | - | 183 W/m² | - |
| 1777563094 | 19.44° C | 81% | 1012.8 hPa | 0 mm | - | 177 W/m² | - |
| 1777562789 | 19.44° C | 81% | 1012.8 hPa | 0 mm | - | 132 W/m² | - |
| 1777562487 | 19.44° C | 84% | 1012.8 hPa | 0 mm | - | 176 W/m² | - |
| 1777562185 | 18.89° C | 86% | 1012.8 hPa | 0 mm | - | 114 W/m² | - |
| 1777561882 | 18.89° C | 84% | 1012.8 hPa | 0 mm | - | 107 W/m² | - |
| 1777561579 | 19.44° C | 86% | 1012.8 hPa | 0 mm | - | 80 W/m² | - |
| 1777561275 | 19.44° C | 86% | 1012.8 hPa | 0 mm | - | 128 W/m² | - |
| 1777560975 | 18.89° C | 88% | 1012.8 hPa | 0 mm | - | 106 W/m² | - |
| 1777560671 | 18.89° C | 90% | 1012.8 hPa | 0 mm | - | 163 W/m² | - |
| 1777560369 | 18.33° C | 90% | 1012.4 hPa | 0 mm | - | 131 W/m² | - |
| 1777560066 | 18.33° C | 91% | 1012.4 hPa | 0 mm | - | 111 W/m² | - |
| 1777559762 | 18.33° C | 91% | 1012.4 hPa | 0 mm | - | 147 W/m² | - |
| 1777559459 | 18.33° C | 91% | 1012.4 hPa | 0 mm | - | 142 W/m² | - |
| 1777559156 | 18.33° C | 91% | 1012.4 hPa | 0 mm | - | 162 W/m² | - |
| 1777558850 | 18.33° C | 92% | 1012.4 hPa | 0 mm | - | 170 W/m² | - |
| 1777558546 | 18.33° C | 91% | 1012.4 hPa | 0 mm | - | 169 W/m² | - |
| 1777558243 | 18.33° C | 93% | 1012 hPa | 0 mm | - | 174 W/m² | - |
| 1777557938 | 18.33° C | 92% | 1011.7 hPa | 0 mm | - | 181 W/m² | - |
| 1777557636 | 18.33° C | 92% | 1011.7 hPa | 0 mm | - | 167 W/m² | - |
| 1777557332 | 17.78° C | 93% | 1011.7 hPa | 0 mm | - | 168 W/m² | - |
| 1777557028 | 17.78° C | 94% | 1011.3 hPa | 0 mm | - | 159 W/m² | - |
| 1777556724 | 17.78° C | 94% | 1011.3 hPa | 0 mm | - | 155 W/m² | - |
| 1777556421 | 17.78° C | 95% | 1011.3 hPa | 0 mm | - | 108 W/m² | - |
| 1777556120 | 17.78° C | 96% | 1011.3 hPa | 0 mm | - | 86 W/m² | - |
* Rain latest hour (hover to see other rain measurements)
** Current wind speed in m/s (hover to see current wind gust speed)